Regional Weather Roundup
Issued by NWS

Home | Current Version | Previous Version | Text Only | Print | Product List | Glossary Off
Versions: 1 2 3 4 5 6 7 8 9 10 11 12 13 14 15 16 17 18 19 20 21 22 23 24 25 26 27 28 29 30 31 32 33 34 35 36 37 38 39 40 41 42 43 44 45 46 47 48 49 50

000
ASUS43 KIND 291259
RWRIN

WEATHER ROUNDUP FOR INDIANA
NATIONAL WEATHER SERVICE INDIANAPOLIS IN
900 AM EDT FRI AUG 29 2014

NOTE: "FAIR" INDICATES FEW OR NO CLOUDS BELOW 12,000 FEET WITH NO
SIGNIFICANT WEATHER AND/OR OBSTRUCTIONS TO VISIBILITY.

* - STATION DOES NOT REPORT WEATHER SUCH AS PRECIPITATION OR FOG.

+ - STATION NOT QUALITY CONTROLLED BY THE NATIONAL WEATHER SERVICE.
    USE DATA WITH CAUTION...ESPECIALLY DEWPOINT AND RELATIVE
    HUMIDITY OBSERVATIONS.

INZ001>003-010>013-019-020-291400-
NORTHWEST INDIANA

CITY           SKY/WX    TMP DP  RH WIND       PRES   REMARKS
GARY /AIRPORT/ CLOUDY    72  64  78 SE12      30.01S
MONTICELLO +   PTSUNNY   68  64  89 CALM      30.03S
VALPARAISO     CLOUDY    68  63  84 SE6       30.05R

$$

LMZ046-743>745-291400-
SOUTHERN LAKE MICHIGAN

STATION/POSITION TIME  TEMP WIND        PRES
                       AIR  DIR/SP/G
                 (UTC) (F)  (DEG/KT/KT) (MB)
MICHIGAN CITY    1200   69  120/ 12/ 18   N/A

$$

INZ004-005-014>016-021>024-291400-
NORTH CENTRAL INDIANA

CITY           SKY/WX    TMP DP  RH WIND       PRES   REMARKS
ELKHART        CLOUDY    66  59  77 SE7       30.08R
GOSHEN         CLOUDY    66  59  78 SE8       30.08R
SOUTH BEND     CLOUDY    68  59  73 SE14      30.07R

$$

INZ006>009-017-018-025>027-291400-
NORTHEAST INDIANA

CITY           SKY/WX    TMP DP  RH WIND       PRES   REMARKS
ANGOLA *+      MOSUNNY   63  55  77 SE7       30.11S
FORT WAYNE     MOSUNNY   65  59  81 SE8       30.10S

$$

INZ028-029-035-036-043>045-051>053-291400-
WEST CENTRAL INDIANA

CITY           SKY/WX    TMP DP  RH WIND       PRES   REMARKS
GREENCASTLE +  CLOUDY    68  64  88 SE3       30.06S
LAFAYETTE      PTSUNNY   70  64  81 VRB5      30.03R
TERRE HAUTE    CLOUDY    73  68  84 SE5       30.03R

$$

INZ030>032-037>040-046>048-054>057-064-065-291400-
CENTRAL INDIANA

CITY           SKY/WX    TMP DP  RH WIND       PRES   REMARKS
ANDERSON       SUNNY     68  59  73 SE12G17   30.09S
COLUMBUS       SUNNY     68  64  88 CALM      30.07S
FRANKFORT +    MOSUNNY   70  64  82 SE5       30.06S
INDIANAPOLIS   CLOUDY    69  62  78 SE9       30.05S
-EAGLE CREEK   PTSUNNY   70  61  73 SE9       30.06R
KOKOMO *+      MOSUNNY   68  63  83 S9        30.07R
MT COMFORT *+  MOSUNNY   68  64  88 SE9       30.08S
SHELBYVILLE    MOSUNNY   71  63  75 SE7       30.07R

$$

INZ033-034-041-042-049-050-058-059-291400-
EAST CENTRAL INDIANA

CITY           SKY/WX    TMP DP  RH WIND       PRES   REMARKS
MUNCIE         MOSUNNY   71  59  65 S9        30.08S

$$

INZ060-061-067>069-081>083-085>088-291400-
SOUTHWEST INDIANA

CITY           SKY/WX    TMP DP  RH WIND       PRES   REMARKS
EVANSVILLE     SUNNY     76  73  91 E5        30.01S

$$

INZ062-063-066-070>080-084-089>092-291400-
SOUTH CENTRAL AND SOUTHEAST INDIANA

CITY           SKY/WX    TMP DP  RH WIND       PRES   REMARKS
BLOOMINGTON    CLOUDY    72  66  81 SE6       30.05S
SEYMOUR +      PTSUNNY   72  59  64 SE5       30.06

$$




USA.gov is the U.S. government's official web portal to all federal, state and local government web resources and services.